TimeCDT,TemperatureF,Dew PointF,Humidity,Sea Level PressureIn,VisibilityMPH,Wind Direction,Wind SpeedMPH,Gust SpeedMPH,PrecipitationIn,Events,Conditions,WindDirDegrees,DateUTC
12:15 AM,35.1,27.1,73,30.31,10.0,NNW,20.7,28.8,N/A,,Clear,340,2012-10-04 05:15:00
12:35 AM,34.7,27.1,74,30.31,10.0,NNW,15.0,24.2,N/A,,Clear,330,2012-10-04 05:35:00
12:55 AM,34.0,27.3,77,30.31,10.0,NNW,13.8,21.9,N/A,,Clear,330,2012-10-04 05:55:00
1:15 AM,33.8,27.1,77,30.32,10.0,NNW,11.5,-,N/A,,Clear,330,2012-10-04 06:15:00
1:35 AM,33.8,27.0,76,30.32,10.0,NNW,10.4,-,N/A,,Clear,330,2012-10-04 06:35:00
1:55 AM,33.3,26.6,77,30.31,10.0,NW,12.7,-,N/A,,Clear,320,2012-10-04 06:55:00
2:15 AM,33.3,26.6,77,30.31,10.0,NW,10.4,-,N/A,,Clear,320,2012-10-04 07:15:00
2:35 AM,33.3,26.6,77,30.32,10.0,NW,9.2,-,N/A,,Clear,320,2012-10-04 07:35:00
2:55 AM,33.1,26.4,77,30.32,10.0,NNW,6.9,-,N/A,,Clear,330,2012-10-04 07:55:00
3:15 AM,33.1,26.2,76,30.32,10.0,NW,8.1,-,N/A,,Clear,320,2012-10-04 08:15:00
3:35 AM,32.9,26.2,76,30.32,10.0,NW,10.4,-,N/A,,Clear,320,2012-10-04 08:35:00
3:55 AM,32.4,26.6,79,30.32,10.0,NW,10.4,-,N/A,,Clear,320,2012-10-04 08:55:00
4:15 AM,30.7,25.9,82,30.33,10.0,WNW,3.5,-,N/A,,Scattered Clouds,300,2012-10-04 09:15:00
4:35 AM,30.4,25.3,82,30.34,10.0,WNW,3.5,-,N/A,,Mostly Cloudy,300,2012-10-04 09:35:00
4:55 AM,29.1,25.3,86,30.33,10.0,NW,9.2,-,N/A,,Scattered Clouds,310,2012-10-04 09:55:00
5:15 AM,30.2,25.5,83,30.33,10.0,NW,5.8,-,N/A,,Clear,320,2012-10-04 10:15:00
5:35 AM,30.9,25.7,81,30.33,10.0,NW,9.2,-,N/A,,Clear,320,2012-10-04 10:35:00
5:55 AM,30.2,25.3,82,30.34,10.0,NW,5.8,-,N/A,,Clear,320,2012-10-04 10:55:00
6:15 AM,28.8,24.8,85,30.34,10.0,NNW,4.6,-,N/A,,Scattered Clouds,330,2012-10-04 11:15:00
6:35 AM,28.8,24.6,84,30.34,10.0,NW,9.2,-,N/A,,Scattered Clouds,320,2012-10-04 11:35:00
6:55 AM,27.5,23.7,86,30.34,10.0,WNW,6.9,-,N/A,,Scattered Clouds,290,2012-10-04 11:55:00
7:15 AM,26.2,23.2,88,30.34,10.0,WNW,10.4,-,N/A,,Clear,290,2012-10-04 12:15:00
7:35 AM,26.2,23.5,90,30.34,10.0,WNW,9.2,-,N/A,,Clear,300,2012-10-04 12:35:00
7:55 AM,26.2,23.5,90,30.34,10.0,WNW,6.9,-,N/A,,Clear,300,2012-10-04 12:55:00
8:15 AM,26.2,23.9,91,30.34,10.0,WNW,9.2,-,N/A,,Clear,300,2012-10-04 13:15:00
8:35 AM,28.4,24.8,86,30.34,10.0,NW,8.1,-,N/A,,Clear,310,2012-10-04 13:35:00
8:55 AM,30.7,25.3,80,30.34,10.0,NW,11.5,-,N/A,,Clear,320,2012-10-04 13:55:00
9:15 AM,32.2,26.2,79,30.34,10.0,NNW,10.4,-,N/A,,Clear,340,2012-10-04 14:15:00
9:35 AM,34.5,26.2,72,30.34,10.0,North,17.3,20.7,N/A,,Clear,350,2012-10-04 14:35:00
9:55 AM,35.1,25.3,68,30.34,10.0,North,18.4,24.2,N/A,,Clear,350,2012-10-04 14:55:00
10:15 AM,36.1,25.2,64,30.34,10.0,North,15.0,-,N/A,,Clear,350,2012-10-04 15:15:00
10:35 AM,37.2,24.4,60,30.34,10.0,North,13.8,-,N/A,,Clear,360,2012-10-04 15:35:00
10:55 AM,37.8,24.3,58,30.35,10.0,North,13.8,19.6,N/A,,Clear,360,2012-10-04 15:55:00
11:15 AM,38.3,23.5,55,30.35,10.0,North,11.5,-,N/A,,Clear,10,2012-10-04 16:15:00
11:35 AM,39.0,23.2,53,30.34,10.0,North,12.7,16.1,N/A,,Clear,350,2012-10-04 16:35:00
11:55 AM,40.3,22.8,50,30.34,10.0,NNW,11.5,18.4,N/A,,Clear,340,2012-10-04 16:55:00
12:15 PM,41.7,22.5,46,30.33,10.0,NNW,10.4,-,N/A,,Clear,340,2012-10-04 17:15:00
12:35 PM,42.6,21.7,44,30.32,10.0,North,10.4,19.6,N/A,,Clear,10,2012-10-04 17:35:00
12:55 PM,43.2,21.0,41,30.32,10.0,North,6.9,16.1,N/A,,Clear,10,2012-10-04 17:55:00
1:35 PM,42.8,19.9,40,30.32,10.0,NE,4.6,-,N/A,,Overcast,50,2012-10-04 18:35:00
1:55 PM,42.8,20.3,41,30.31,10.0,ENE,5.8,-,N/A,,Overcast,70,2012-10-04 18:55:00
2:15 PM,43.3,20.7,40,30.30,10.0,ESE,4.6,-,N/A,,Overcast,110,2012-10-04 19:15:00
2:35 PM,43.9,20.7,40,30.30,10.0,East,6.9,-,N/A,,Overcast,90,2012-10-04 19:35:00
2:55 PM,43.3,20.7,40,30.28,10.0,Calm,Calm,-,N/A,,Overcast,0,2012-10-04 19:55:00
3:15 PM,44.1,20.5,39,30.28,10.0,ESE,4.6,-,N/A,,Overcast,110,2012-10-04 20:15:00
3:35 PM,44.6,21.0,39,30.27,10.0,Calm,Calm,-,N/A,,Overcast,0,2012-10-04 20:35:00
3:55 PM,45.0,20.3,38,30.27,10.0,ESE,6.9,-,N/A,,Overcast,110,2012-10-04 20:55:00
4:15 PM,44.8,20.8,39,30.26,10.0,Calm,Calm,-,N/A,,Overcast,0,2012-10-04 21:15:00
4:35 PM,46.2,21.0,37,30.26,10.0,South,5.8,-,N/A,,Scattered Clouds,190,2012-10-04 21:35:00
4:55 PM,45.7,20.8,37,30.26,10.0,South,4.6,-,N/A,,Scattered Clouds,190,2012-10-04 21:55:00
5:15 PM,44.6,21.0,39,30.25,10.0,Calm,Calm,-,N/A,,Scattered Clouds,0,2012-10-04 22:15:00
5:55 PM,45.3,20.5,37,30.24,10.0,Calm,Calm,-,N/A,,Mostly Cloudy,0,2012-10-04 22:55:00
6:15 PM,45.1,20.7,38,30.24,10.0,ESE,3.5,-,N/A,,Mostly Cloudy,110,2012-10-04 23:15:00
6:35 PM,45.5,20.8,38,30.25,10.0,SSE,4.6,-,N/A,,Overcast,160,2012-10-04 23:35:00
6:55 PM,45.0,20.8,38,30.25,10.0,Calm,Calm,-,N/A,,Mostly Cloudy,0,2012-10-04 23:55:00
7:15 PM,44.6,20.8,39,30.25,10.0,ESE,5.8,-,N/A,,Mostly Cloudy,110,2012-10-05 00:15:00
7:35 PM,41.9,20.3,42,30.25,10.0,ESE,4.6,-,N/A,,Mostly Cloudy,110,2012-10-05 00:35:00
7:55 PM,37.8,19.4,48,30.25,10.0,East,6.9,-,N/A,,Scattered Clouds,100,2012-10-05 00:55:00
8:15 PM,36.3,19.8,51,30.26,10.0,ESE,5.8,-,N/A,,Clear,110,2012-10-05 01:15:00
8:35 PM,35.8,20.1,53,30.25,10.0,ESE,4.6,-,N/A,,Clear,110,2012-10-05 01:35:00
8:55 PM,36.3,20.5,53,30.26,10.0,ESE,6.9,-,N/A,,Clear,110,2012-10-05 01:55:00
9:15 PM,34.3,19.8,55,30.26,10.0,ESE,5.8,-,N/A,,Clear,120,2012-10-05 02:15:00
9:35 PM,33.6,20.1,58,30.26,10.0,East,5.8,-,N/A,,Clear,80,2012-10-05 02:35:00
9:55 PM,32.0,19.9,61,30.26,10.0,East,6.9,-,N/A,,Clear,100,2012-10-05 02:55:00
10:15 PM,33.3,20.5,59,30.26,10.0,ESE,5.8,-,N/A,,Clear,110,2012-10-05 03:15:00
10:35 PM,32.0,20.3,62,30.26,10.0,East,5.8,-,N/A,,Clear,100,2012-10-05 03:35:00
10:55 PM,32.0,20.3,62,30.26,10.0,East,6.9,-,N/A,,Clear,100,2012-10-05 03:55:00
11:15 PM,31.5,20.1,63,30.26,10.0,East,8.1,-,N/A,,Clear,80,2012-10-05 04:15:00
11:35 PM,32.0,20.3,62,30.26,10.0,East,9.2,-,N/A,,Clear,100,2012-10-05 04:35:00
11:55 PM,32.4,21.0,63,30.25,10.0,ESE,10.4,-,N/A,,Clear,110,2012-10-05 04:55:00